Weather History for Hereford, TX

Change the Weather History Date:

Wednesday, May 29, 2013

  Actual Average (KAMA) Record (KAMA)
Temperature  
Mean Temperature 78 °F 70 °F  
Max Temperature 91 °F 83 °F 104 °F (2011)
Min Temperature 67 °F 56 °F 36 °F (1947)
Degree Days  
Heating Degree Days 0 1  
Month to date heating degree days 81  
Since 1 July heating degree days 4169  
Cooling Degree Days 14 6  
Month to date cooling degree days 92  
Year to date cooling degree days 113  
Growing Degree Days 28 (Base 50)    
Moisture  
Dew Point 42 °F    
Average Humidity 40    
Maximum Humidity 83    
Minimum Humidity 8    
Precipitation  
Precipitation 0.00 in 0.11 in 2.90 in (1911)
Month to date precipitation 2.08  
Year to date precipitation 6.15  
Snow  
Snow 0.00 in 0.00 in 0.00 in ()
Month to date snowfall 0.2  
Since 1 July snowfall 17.8  
Snow Depth -    
Sea Level Pressure  
Sea Level Pressure 29.64 in    
Wind  
Wind Speed 18 mph (SSW)    
Max Wind Speed 37 mph    
Max Gust Speed 32 mph    
Visibility 10 miles    
Events Thunderstorm    
T = Trace of Precipitation, MM = Missing Value Source: NWS Daily Summary

Daily Weather History Graph

Daily Weather History Graph

Search for Another Location

Airport:

Trip Planner

Search our weather history database for the weather conditions in past years. The results will help you decide how hot, cold, wet, or windy it might be!

Date:

Astronomy

May. 29, 2013 Rise Set
Actual Time 6:37 AM CDT 8:55 PM CDT
Civil Twilight 6:08 AM CDT 9:24 PM CDT
Nautical Twilight 5:33 AM CDT 10:00 PM CDT
Astronomical Twilight 4:54 AM CDT 10:39 PM CDT
Moon 12:25 AM CDT (5/29) 11:33 AM CDT (5/29)
Length of Visible Light 15h 16m
Length of Day
14h 18m
Waning Gibbous, 73% of the Moon is Illuminated
May 29
Waning Gibbous
May 31
Last Quarter
Jun 8
New
Jun 16
First Quarter
Jun 23
Full

Hourly Weather History & Observations

Time (CDT) Temp. Dew Point Humidity Pressure Visibility Wind Dir Wind Speed Gust Speed Precip Events Conditions
12:15 AM 71.2 °F 61.0 °F 70% 29.77 in 10.0 mi SSE 15.0 mph 20.7 mph N/A   Overcast
12:35 AM 71.2 °F 61.3 °F 71% 29.76 in 10.0 mi SSE 17.3 mph 27.6 mph N/A   Overcast
12:55 AM 70.9 °F 61.7 °F 73% 29.75 in 10.0 mi South 20.7 mph 25.3 mph N/A   Overcast
1:15 AM 70.7 °F 61.7 °F 73% 29.75 in 10.0 mi South 17.3 mph 24.2 mph N/A   Overcast
1:35 AM 69.8 °F 61.7 °F 75% 29.74 in 10.0 mi South 16.1 mph 24.2 mph N/A   Mostly Cloudy
1:55 AM 68.7 °F 61.5 °F 78% 29.74 in 10.0 mi South 15.0 mph 23.0 mph N/A   Scattered Clouds
2:15 AM 68.2 °F 61.7 °F 80% 29.73 in 10.0 mi South 12.7 mph - N/A   Scattered Clouds
2:35 AM 68.0 °F 61.5 °F 80% 29.72 in 10.0 mi South 15.0 mph 23.0 mph N/A   Scattered Clouds
2:55 AM 68.0 °F 61.7 °F 80% 29.72 in 10.0 mi South 18.4 mph 25.3 mph N/A   Scattered Clouds
3:15 AM 68.0 °F 61.7 °F 80% 29.70 in 10.0 mi South 21.9 mph 25.3 mph N/A   Clear
3:35 AM 68.0 °F 61.7 °F 80% 29.70 in 10.0 mi South 23.0 mph 32.2 mph N/A   Clear
3:55 AM 67.8 °F 61.7 °F 81% 29.69 in 10.0 mi SSW 20.7 mph 27.6 mph N/A   Clear
4:15 AM 67.5 °F 61.7 °F 82% 29.69 in 10.0 mi SSW 18.4 mph 25.3 mph N/A   Clear
4:35 AM 67.1 °F 61.7 °F 83% 29.68 in 10.0 mi SSW 19.6 mph 25.3 mph N/A   Clear
4:55 AM 67.1 °F 61.7 °F 83% 29.69 in 10.0 mi SSW 18.4 mph 23.0 mph N/A   Clear
5:15 AM 67.1 °F 61.9 °F 83% 29.69 in 10.0 mi SSW 17.3 mph 23.0 mph N/A   Clear
5:35 AM 68.0 °F 62.2 °F 82% 29.69 in 10.0 mi SSW 19.6 mph 25.3 mph N/A   Mostly Cloudy
5:55 AM 68.2 °F 62.6 °F 82% 29.69 in 10.0 mi SSW 19.6 mph 27.6 mph N/A   Mostly Cloudy
6:15 AM 68.4 °F 62.6 °F 82% 29.69 in 10.0 mi SSW 19.6 mph 27.6 mph N/A   Mostly Cloudy
6:35 AM 68.4 °F 62.2 °F 81% 29.69 in 10.0 mi SSW 17.3 mph 25.3 mph N/A   Scattered Clouds
6:55 AM 68.2 °F 62.2 °F 81% 29.68 in 10.0 mi SW 15.0 mph 21.9 mph N/A   Clear
7:15 AM 68.0 °F 62.1 °F 81% 29.68 in 10.0 mi SSW 15.0 mph - N/A   Clear
7:35 AM 68.7 °F 62.1 °F 79% 29.68 in 10.0 mi SW 16.1 mph 19.6 mph N/A   Scattered Clouds
7:55 AM 70.0 °F 62.2 °F 76% 29.68 in 10.0 mi SW 16.1 mph 20.7 mph N/A   Scattered Clouds
8:15 AM 70.9 °F 62.4 °F 75% 29.68 in 10.0 mi SW 21.9 mph - N/A   Scattered Clouds
8:35 AM 71.6 °F 62.2 °F 72% 29.67 in 10.0 mi SW 18.4 mph 25.3 mph N/A   Scattered Clouds
8:55 AM 72.5 °F 62.2 °F 70% 29.67 in 10.0 mi North - - N/A   Clear
9:15 AM 73.6 °F 61.9 °F 67% 29.67 in 10.0 mi North - - N/A   Clear
9:35 AM 74.7 °F 61.7 °F 64% 29.67 in 10.0 mi North - - N/A   Clear
9:55 AM 76.3 °F 61.3 °F 60% 29.67 in 10.0 mi North - - N/A   Clear
10:15 AM 77.0 °F 60.3 °F 56% 29.67 in 10.0 mi North - - N/A   Clear
10:35 AM 78.3 °F 59.2 °F 52% 29.67 in 10.0 mi North - - N/A   Clear
10:55 AM 81.0 °F 52.0 °F 36% 29.67 in 10.0 mi North - - N/A   Clear
11:15 AM 81.9 °F 46.8 °F 29% 29.66 in 10.0 mi North - - N/A   Clear
11:35 AM 82.9 °F 40.8 °F 22% 29.66 in 10.0 mi WNW 9.2 mph 23.0 mph N/A   Clear
11:55 AM 84.0 °F 39.0 °F 20% 29.66 in 10.0 mi North - - N/A   Clear
12:15 PM 85.5 °F 32.0 °F 15% 29.66 in 10.0 mi North - - N/A   Clear
12:35 PM 87.6 °F 28.2 °F 12% 29.66 in 10.0 mi North - - N/A   Clear
12:55 PM 87.4 °F 27.5 °F 11% 29.65 in 10.0 mi North - - N/A   Clear
1:15 PM 88.7 °F 24.6 °F 10% 29.64 in 10.0 mi North - - N/A   Clear
1:35 PM 88.5 °F 25.3 °F 10% 29.64 in 10.0 mi North - - N/A   Clear
1:55 PM 90.5 °F 25.5 °F 10% 29.63 in 10.0 mi North - - N/A   Clear
2:15 PM 90.0 °F 24.8 °F 9% 29.62 in 10.0 mi North - - N/A   Clear
2:35 PM 90.0 °F 24.3 °F 9% 29.62 in 10.0 mi SW 35.7 mph - N/A   Clear
2:55 PM 90.7 °F 24.1 °F 9% 29.61 in 10.0 mi North - - N/A   Clear
3:15 PM 90.3 °F 24.1 °F 9% 29.60 in 10.0 mi North - - N/A   Clear
3:35 PM 89.8 °F 25.5 °F 10% 29.59 in 10.0 mi North - - N/A   Clear
3:55 PM 90.3 °F 26.1 °F 10% 29.58 in 10.0 mi North - - N/A Thunderstorm Clear
4:15 PM 90.1 °F 25.9 °F 10% 29.58 in 10.0 mi North - - N/A   Clear
4:35 PM 90.7 °F 25.2 °F 9% 29.56 in 10.0 mi WSW 35.7 mph - N/A   Clear
4:55 PM 90.1 °F 23.5 °F 9% 29.55 in 10.0 mi WSW 36.8 mph - N/A   Clear
5:15 PM 90.3 °F 23.0 °F 9% 29.54 in 10.0 mi North - - N/A   Clear
5:35 PM 90.5 °F 23.0 °F 9% 29.54 in 10.0 mi North - - N/A   Clear
5:55 PM 89.8 °F 21.0 °F 8% 29.54 in 10.0 mi North - - N/A   Clear
6:15 PM 90.0 °F 22.3 °F 9% 29.55 in 10.0 mi North - - N/A   Clear
6:35 PM 89.4 °F 21.7 °F 8% 29.54 in 10.0 mi North - - N/A   Clear
6:55 PM 89.6 °F 22.5 °F 9% 29.54 in 10.0 mi North - - N/A   Clear
7:15 PM 88.7 °F 22.8 °F 9% 29.54 in 10.0 mi North - - N/A   Clear
7:35 PM 87.8 °F 22.8 °F 9% 29.54 in 10.0 mi North - - N/A   Clear
7:55 PM 86.9 °F 23.2 °F 10% 29.55 in 10.0 mi North - - N/A   Clear
8:15 PM 86.0 °F 18.3 °F 8% 29.56 in 10.0 mi West 16.1 mph - N/A   Clear
8:35 PM 83.8 °F 18.9 °F 9% 29.57 in 7.0 mi North - - N/A   Clear
8:55 PM 82.4 °F 19.4 °F 10% 29.57 in 7.0 mi North - - N/A   Clear
9:15 PM 78.3 °F 20.5 °F 12% 29.58 in 10.0 mi SW 9.2 mph - N/A   Clear
9:35 PM 77.4 °F 20.8 °F 12% 29.58 in 10.0 mi SW 8.1 mph - N/A   Clear
9:55 PM 75.2 °F 21.7 °F 14% 29.59 in 3.0 mi North - - N/A   Haze
10:15 PM 73.2 °F 23.7 °F 16% 29.60 in 10.0 mi SW 9.2 mph - N/A   Clear
10:35 PM 72.7 °F 22.6 °F 15% 29.61 in 10.0 mi SW 9.2 mph - N/A   Clear
10:55 PM 71.6 °F 23.4 °F 16% 29.62 in 10.0 mi North - - N/A   Clear
11:15 PM 71.1 °F 22.3 °F 16% 29.62 in 10.0 mi North - - N/A   Clear
11:35 PM 72.0 °F 21.2 °F 15% 29.63 in 10.0 mi WSW 11.5 mph - N/A   Clear
11:55 PM 74.1 °F 18.9 °F 12% 29.63 in 10.0 mi North - - N/A   Clear